GW1213 Weather Reports


time (UTC)temp
C
wind
direction
speed
KPH
gust
KPH
rain 1hr
cm
rain 24hr
cm
rain mn
cm
humidity
%
barometer
mb
20260831152034 28 0 0.0 3.2 0.00 0.00 0.00 74 1018.7
20260831151617 28 360 1.6 3.2 0.00 0.00 0.00 73 1018.7
20260831151038 28 0 1.6 3.2 0.00 0.00 0.00 74 1018.6
20260831150540 28 32 1.6 4.8 0.00 0.00 0.00 75 1018.7
20260831150100 28 73 0.0 11.3 0.00 0.00 0.00 74 1018.6
20260831145538 28 38 4.8 11.3 0.00 0.00 0.00 75 1018.5
20260831145037 28 28 1.6 4.8 0.00 0.00 0.00 77 1018.5
20260831144601 28 352 0.0 8.0 0.00 0.00 0.00 75 1018.6
20260831144037 28 0 1.6 8.0 0.00 0.00 0.00 76 1018.6
20260831143536 28 67 1.6 8.0 0.00 0.00 0.00 76 1018.5
20260831143055 28 0 0.0 4.8 0.00 0.00 0.00 76 1018.6
20260831142536 27 0 0.0 4.8 0.00 0.00 0.00 77 1018.7
20260831142037 28 351 1.6 4.8 0.00 0.00 0.00 76 1018.7
20260831141557 28 0 0.0 0.0 0.00 0.00 0.00 76 1018.5
20260831141040 27 0 0.0 0.0 0.00 0.00 0.00 77 1018.6
20260831140535 27 0 0.0 0.0 0.00 0.00 0.00 77 1018.4
20260831140059 27 0 0.0 0.0 0.00 0.00 0.00 77 1018.4
20260831135537 27 0 0.0 0.0 0.00 0.00 0.00 78 1018.4
20260831135039 27 0 0.0 0.0 0.00 0.00 0.00 79 1018.5
20260831134602 27 0 0.0 0.0 0.00 0.00 0.00 79 1018.5
20260831134035 27 0 0.0 0.0 0.00 0.00 0.00 79 1018.6
20260831133537 26 0 0.0 0.0 0.00 0.00 0.00 80 1018.7
20260831133103 26 0 0.0 0.0 0.00 0.00 0.00 81 1018.7
20260831132537 26 0 0.0 0.0 0.00 0.00 0.00 83 1018.7
20260831132035 25 0 0.0 0.0 0.00 0.00 0.00 84 1018.8
20260831131615 25 0 0.0 0.0 0.00 0.00 0.00 85 1018.8
20260831131036 25 0 0.0 0.0 0.00 0.00 0.00 86 1018.8
20260831130537 25 0 0.0 0.0 0.00 0.00 0.00 85 1019.0
20260831130112 25 0 0.0 0.0 0.00 0.00 0.00 86 1018.9
20260831125538 25 0 0.0 0.0 0.00 0.00 0.00 87 1018.9
20260831125036 25 0 0.0 0.0 0.00 0.00 0.00 88 1018.9
20260831124610 24 0 0.0 0.0 0.00 0.00 0.00 90 1018.9
20260831124037 24 0 0.0 0.0 0.00 0.00 0.00 90 1018.9
20260831123535 23 0 0.0 0.0 0.00 0.00 0.00 92 1018.9
20260831123100 23 0 0.0 0.0 0.00 0.00 0.00 93 1018.9
20260831122536 23 0 0.0 0.0 0.00 0.00 0.00 94 1018.8
20260831122037 23 0 0.0 0.0 0.00 0.00 0.00 94 1018.8
20260831121601 22 0 0.0 0.0 0.00 0.00 0.00 94 1018.7
20260831121037 22 0 0.0 3.2 0.00 0.00 0.00 95 1018.7
20260831120537 22 0 0.0 3.2 0.00 0.00 0.00 95 1018.6
20260831120109 22 0 0.0 1.6 0.00 0.00 0.00 96 1018.5
20260831115537 22 0 0.0 1.6 0.00 0.00 0.00 96 1018.5
20260831115036 22 0 0.0 0.0 0.00 0.00 0.00 97 1018.6
20260831114601 22 0 0.0 0.0 0.00 0.00 0.00 97 1018.6
20260831114037 22 0 0.0 0.0 0.00 0.00 0.00 98 1018.6
20260831113535 22 0 0.0 0.0 0.00 0.00 0.00 98 1018.6
20260831113107 21 0 0.0 0.0 0.00 0.00 0.00 97 1018.4
20260831112538 21 0 0.0 0.0 0.00 0.00 0.00 97 1018.4
20260831112043 21 0 0.0 0.0 0.00 0.00 0.00 97 1018.3
20260831111554 21 0 0.0 0.0 0.00 0.00 0.00 97 1018.1
20260831111036 21 0 0.0 0.0 0.00 0.00 0.00 96 1018.2
20260831110536 21 0 0.0 0.0 0.00 0.00 0.00 96 1018.2
20260831110107 21 0 0.0 0.0 0.00 0.00 0.00 96 1018.2
20260831105538 21 0 0.0 0.0 0.00 0.00 0.00 96 1018.1
20260831105038 21 0 0.0 0.0 0.00 0.00 0.00 96 1017.9
20260831104611 21 0 0.0 0.0 0.00 0.00 0.00 96 1017.8
20260831104038 21 0 0.0 0.0 0.00 0.00 0.00 96 1017.7
20260831103537 21 0 0.0 0.0 0.00 0.00 0.00 96 1017.7
20260831103059 21 0 0.0 0.0 0.00 0.00 0.00 97 1017.7
20260831102537 21 0 0.0 0.0 0.00 0.00 0.00 96 1017.6
20260831102036 21 0 0.0 0.0 0.00 0.00 0.00 96 1017.5
20260831101607 21 0 0.0 0.0 0.00 0.00 0.00 96 1017.5
20260831101036 21 0 0.0 0.0 0.00 0.00 0.00 96 1017.6
20260831100535 21 0 0.0 0.0 0.00 0.00 0.00 96 1017.6
20260831100127 21 0 0.0 0.0 0.00 0.00 0.00 96 1017.6
20260831095535 21 0 0.0 0.0 0.00 0.00 0.00 96 1017.6
20260831095035 21 0 0.0 0.0 0.00 0.00 0.00 96 1017.6
20260831094559 21 0 0.0 0.0 0.00 0.00 0.00 96 1017.7
20260831094035 21 0 0.0 0.0 0.00 0.00 0.00 96 1017.7
20260831093536 21 0 0.0 0.0 0.00 0.00 0.00 96 1017.7
20260831093108 21 0 0.0 0.0 0.00 0.00 0.00 96 1017.6
20260831092536 21 0 0.0 0.0 0.00 0.00 0.00 96 1017.6
20260831092036 21 0 0.0 0.0 0.00 0.00 0.00 96 1017.6
20260831091603 21 0 0.0 0.0 0.00 0.00 0.00 96 1017.6
20260831091036 21 0 0.0 0.0 0.00 0.00 0.00 96 1017.5
20260831090538 21 0 0.0 0.0 0.00 0.00 0.00 96 1017.6
20260831090107 21 0 0.0 0.0 0.00 0.00 0.00 96 1017.6
20260831085538 21 0 0.0 0.0 0.00 0.00 0.00 96 1017.6
20260831085039 21 0 0.0 0.0 0.00 0.00 0.00 95 1017.7
20260831084610 21 0 0.0 0.0 0.00 0.00 0.00 96 1017.6
20260831084038 21 0 0.0 0.0 0.00 0.00 0.00 95 1017.6
20260831083541 21 0 0.0 0.0 0.00 0.00 0.00 95 1017.6
20260831083102 21 0 0.0 0.0 0.00 0.00 0.00 95 1017.5
20260831082536 21 0 0.0 0.0 0.00 0.00 0.00 95 1017.4
20260831082039 21 0 0.0 0.0 0.00 0.00 0.00 95 1017.5
20260831081606 21 0 0.0 0.0 0.00 0.00 0.00 95 1017.4
20260831081036 21 0 0.0 0.0 0.00 0.00 0.00 95 1017.5
20260831080535 21 0 0.0 0.0 0.00 0.00 0.00 95 1017.4
20260831080108 21 0 0.0 0.0 0.00 0.00 0.00 95 1017.4
20260831075537 22 0 0.0 0.0 0.00 0.00 0.00 95 1017.3
20260831075034 22 0 0.0 0.0 0.00 0.00 0.00 95 1017.4
20260831074601 22 0 0.0 0.0 0.00 0.00 0.00 95 1017.5
20260831074036 22 0 0.0 0.0 0.00 0.00 0.00 95 1017.5
20260831073540 22 0 0.0 0.0 0.00 0.00 0.00 95 1017.5
20260831073105 22 0 0.0 0.0 0.00 0.00 0.00 95 1017.4
20260831072537 22 0 0.0 0.0 0.00 0.00 0.00 95 1017.3
20260831072038 22 0 0.0 0.0 0.00 0.00 0.00 95 1017.3
20260831071558 22 0 0.0 0.0 0.00 0.00 0.00 95 1017.3
20260831071037 22 0 0.0 0.0 0.00 0.00 0.00 95 1017.3
20260831070535 22 0 0.0 0.0 0.00 0.00 0.00 95 1017.3
20260831070115 22 0 0.0 0.0 0.00 0.00 0.00 95 1017.2
20260831065540 22 0 0.0 0.0 0.00 0.00 0.00 95 1017.3
20260831065039 22 0 0.0 0.0 0.00 0.00 0.00 95 1017.4
20260831064556 22 0 0.0 0.0 0.00 0.00 0.00 95 1017.5
20260831064037 22 0 0.0 0.0 0.00 0.00 0.00 95 1017.3
20260831063539 22 0 0.0 0.0 0.00 0.00 0.00 95 1017.3
20260831063101 22 0 0.0 0.0 0.00 0.00 0.00 95 1017.4
20260831062537 22 0 0.0 0.0 0.00 0.00 0.00 95 1017.4
20260831062037 22 0 0.0 0.0 0.00 0.00 0.00 95 1017.5
20260831061601 22 0 0.0 0.0 0.00 0.00 0.00 94 1017.5
20260831061036 22 0 0.0 0.0 0.00 0.00 0.00 94 1017.6
20260831060536 22 0 0.0 0.0 0.00 0.00 0.00 94 1017.6
20260831055537 22 0 0.0 0.0 0.00 0.00 0.00 94 1017.6
20260831055036 22 0 0.0 0.0 0.00 0.00 0.00 94 1017.6
20260831054602 22 0 0.0 0.0 0.00 0.00 0.00 94 1017.7
20260831054037 22 0 0.0 0.0 0.00 0.00 0.00 94 1017.8
20260831053540 22 0 0.0 0.0 0.00 0.00 0.00 94 1017.7
20260831053104 22 0 0.0 0.0 0.00 0.00 0.00 93 1017.8
20260831052538 23 0 0.0 0.0 0.00 0.00 0.00 93 1017.8
20260831052037 23 0 0.0 0.0 0.00 0.00 0.00 93 1017.9
20260831051558 23 0 0.0 0.0 0.00 0.00 0.00 93 1018.0
20260831051037 23 0 0.0 0.0 0.00 0.00 0.00 93 1018.0
20260831050536 23 0 0.0 0.0 0.00 0.00 0.00 93 1018.0
20260831050107 23 0 0.0 0.0 0.00 0.00 0.00 93 1018.0
20260831045536 23 0 0.0 0.0 0.00 0.00 0.00 93 1018.1
20260831045037 23 0 0.0 0.0 0.00 0.00 0.00 93 1018.0
20260831044610 23 0 0.0 0.0 0.00 0.00 0.00 92 1018.0
20260831044037 23 0 0.0 0.0 0.00 0.00 0.00 93 1017.8
20260831043536 23 0 0.0 0.0 0.00 0.00 0.00 92 1017.9
20260831043101 23 0 0.0 0.0 0.00 0.00 0.00 92 1017.8
20260831042540 23 0 0.0 0.0 0.00 0.00 0.00 92 1017.8
20260831042036 23 0 0.0 0.0 0.00 0.00 0.00 92 1017.8
20260831041605 23 0 0.0 0.0 0.00 0.00 0.00 92 1017.9
20260831041040 23 0 0.0 0.0 0.00 0.00 0.00 92 1018.0
20260831040538 23 0 0.0 0.0 0.00 0.00 0.00 92 1018.1
20260831040101 23 0 0.0 0.0 0.00 0.00 0.00 92 1018.1
20260831035541 23 0 0.0 0.0 0.00 0.00 0.00 92 1018.0
20260831035037 23 0 0.0 0.0 0.00 0.00 0.00 92 1018.0
20260831034559 23 0 0.0 0.0 0.00 0.00 0.00 93 1018.1
20260831034037 23 0 0.0 0.0 0.00 0.00 0.00 92 1018.3
20260831033537 23 0 0.0 0.0 0.00 0.00 0.00 92 1018.4
20260831033101 23 0 0.0 0.0 0.00 0.00 0.00 92 1018.6
20260831032537 23 0 0.0 0.0 0.00 0.00 0.00 92 1018.6
20260831032035 23 0 0.0 0.0 0.00 0.00 0.00 92 1018.6
20260831031603 23 0 0.0 0.0 0.00 0.00 0.00 92 1018.7
20260831031037 23 0 0.0 0.0 0.00 0.00 0.00 92 1018.6
20260831030539 23 0 0.0 0.0 0.00 0.00 0.00 92 1018.7
20260831030107 23 0 0.0 0.0 0.00 0.00 0.00 92 1018.8
20260831025537 23 0 0.0 0.0 0.00 0.00 0.00 93 1018.9
20260831025038 23 0 0.0 0.0 0.00 0.00 0.00 92 1018.9
20260831024615 23 0 0.0 0.0 0.00 0.00 0.00 92 1019.0
20260831024037 23 0 0.0 0.0 0.00 0.00 0.00 92 1019.0
20260831023537 23 0 0.0 3.2 0.00 0.00 0.00 92 1018.9
20260831023106 23 0 0.0 3.2 0.00 0.00 0.00 91 1018.9
20260831022536 23 0 0.0 0.0 0.00 0.00 0.00 91 1018.9
20260831022035 23 0 0.0 0.0 0.00 0.00 0.00 91 1018.8
20260831021605 23 0 0.0 0.0 0.00 0.00 0.00 91 1018.8
20260831021040 23 0 0.0 0.0 0.00 0.00 0.00 90 1018.8
20260831020538 23 0 0.0 0.0 0.00 0.00 0.00 90 1018.8
20260831020110 23 0 0.0 0.0 0.00 0.00 0.00 90 1018.8
20260831015537 23 0 0.0 0.0 0.00 0.00 0.00 90 1018.7
20260831015037 23 0 0.0 0.0 0.00 0.00 0.00 90 1018.7
20260831014615 23 0 0.0 0.0 0.00 0.00 0.00 91 1018.8
20260831014037 23 0 0.0 0.0 0.00 0.00 0.00 91 1018.7
20260831013536 23 0 0.0 0.0 0.00 0.00 0.00 90 1018.7
20260831013104 23 0 0.0 0.0 0.00 0.00 0.00 90 1018.8
20260831012535 23 0 0.0 0.0 0.00 0.00 0.00 90 1018.8
20260831012035 23 0 0.0 0.0 0.00 0.00 0.00 89 1018.8
20260831011616 23 0 0.0 0.0 0.00 0.00 0.00 89 1018.7
20260831011037 23 0 0.0 0.0 0.00 0.00 0.00 89 1018.6
20260831010537 23 0 0.0 0.0 0.00 0.00 0.00 89 1018.6
20260831005536 23 0 0.0 0.0 0.00 0.00 0.00 89 1018.5
20260831005037 23 0 0.0 0.0 0.00 0.00 0.00 89 1018.5
20260831004600 23 0 0.0 0.0 0.00 0.00 0.00 89 1018.4
20260831004037 23 0 0.0 0.0 0.00 0.00 0.00 88 1018.2
20260831003537 23 0 0.0 0.0 0.00 0.00 0.00 87 1018.3
20260831003106 23 0 0.0 0.0 0.00 0.00 0.00 87 1018.2
20260831002540 24 0 0.0 0.0 0.00 0.00 0.00 86 1018.1
20260831002038 24 0 0.0 0.0 0.00 0.00 0.00 86 1018.0
20260831001607 24 0 0.0 0.0 0.00 0.00 0.00 84 1017.9
20260831001038 25 0 0.0 0.0 0.00 0.00 0.00 83 1017.8
20260831000538 25 0 0.0 0.0 0.00 0.00 0.00 83 1017.7
20260831000103 25 0 0.0 0.0 0.00 0.00 0.00 82 1017.8
20260830235539 25 0 0.0 0.0 0.00 0.00 0.00 79 1017.9
20260830235038 25 0 0.0 1.6 0.00 0.00 0.00 77 1017.9
20260830234558 25 0 0.0 1.6 0.00 0.00 0.00 78 1017.8
20260830234039 26 0 0.0 1.6 0.00 0.00 0.00 77 1017.9
20260830233537 26 0 0.0 3.2 0.00 0.00 0.00 76 1018.0
20260830233107 26 0 0.0 9.7 0.00 0.00 0.00 74 1018.2
20260830232541 27 279 1.6 9.7 0.00 0.00 0.00 70 1018.5
20260830232038 27 288 3.2 9.7 0.00 0.00 0.00 68 1018.6
20260830231610 27 0 1.6 11.3 0.00 0.00 0.00 68 1018.7
20260830231038 28 257 1.6 11.3 0.00 0.00 0.00 65 1018.6
20260830230535 28 229 3.2 9.7 0.00 0.00 0.00 65 1018.6
20260830230100 28 255 3.2 9.7 0.00 0.00 0.00 65 1018.6
20260830225537 29 263 1.6 6.4 0.00 0.00 0.00 67 1018.5
20260830225037 29 275 0.0 4.8 0.00 0.00 0.00 66 1018.2
20260830224611 29 247 0.0 4.8 0.00 0.00 0.00 66 1018.0
20260830224038 30 0 0.0 6.4 0.00 0.00 0.00 66 1018.0
20260830223538 29 186 0.0 6.4 0.00 0.00 0.00 66 1017.9
20260830223102 29 0 0.0 6.4 0.00 0.00 0.00 66 1017.9
20260830222535 30 0 0.0 6.4 0.00 0.00 0.00 65 1017.6
20260830222037 30 0 1.6 8.0 0.00 0.00 0.00 65 1017.6
20260830221609 30 202 1.6 8.0 0.00 0.00 0.00 64 1017.7
20260830221037 30 0 1.6 9.7 0.00 0.00 0.00 65 1017.6
20260830220537 30 0 0.0 9.7 0.00 0.00 0.00 64 1017.7
20260830220104 30 266 0.0 8.0 0.00 0.00 0.00 64 1017.7
20260830215538 30 186 1.6 11.3 0.00 0.00 0.00 64 1017.7
20260830215036 30 244 1.6 11.3 0.00 0.00 0.00 63 1017.8
20260830214605 30 242 1.6 8.0 0.00 0.00 0.00 63 1017.6
20260830214038 30 205 1.6 11.3 0.00 0.00 0.00 62 1017.7
20260830213538 30 0 3.2 11.3 0.00 0.00 0.00 62 1017.7
20260830213103 31 0 3.2 9.7 0.00 0.00 0.00 61 1017.7
20260830212538 31 0 1.6 9.7 0.00 0.00 0.00 62 1017.7
20260830212036 31 238 0.0 12.9 0.00 0.00 0.00 60 1017.6
20260830211601 31 150 1.6 12.9 0.00 0.00 0.00 59 1017.7
20260830211038 31 240 1.6 11.3 0.00 0.00 0.00 60 1017.6
20260830210537 31 237 3.2 12.9 0.00 0.00 0.00 60 1017.5
20260830210103 31 0 1.6 14.5 0.00 0.00 0.00 61 1017.4
20260830205537 31 121 1.6 14.5 0.00 0.00 0.00 60 1017.5
20260830205040 31 153 3.2 14.5 0.00 0.00 0.00 61 1017.5
20260830204602 31 74 3.2 12.9 0.00 0.00 0.00 60 1017.5
20260830204037 31 148 3.2 12.9 0.00 0.00 0.00 62 1017.4
20260830203537 31 276 1.6 12.9 0.00 0.00 0.00 60 1017.5
20260830203107 31 55 3.2 12.9 0.00 0.00 0.00 59 1017.6
20260830202537 31 250 3.2 11.3 0.00 0.00 0.00 58 1017.7
20260830202037 31 159 4.8 11.3 0.00 0.00 0.00 58 1017.8
20260830201602 31 153 3.2 12.9 0.00 0.00 0.00 59 1017.8
20260830201034 31 247 1.6 12.9 0.00 0.00 0.00 60 1017.9
20260830200541 31 0 4.8 11.3 0.00 0.00 0.00 59 1017.8
20260830195534 31 72 3.2 14.5 0.00 0.00 0.00 61 1017.9
20260830195043 31 159 4.8 12.9 0.00 0.00 0.00 59 1018.1
20260830194558 31 221 4.8 12.9 0.00 0.00 0.00 59 1018.1
20260830194036 31 146 1.6 12.9 0.00 0.00 0.00 60 1018.1
20260830193538 31 222 1.6 12.9 0.00 0.00 0.00 60 1018.1
20260830193108 31 281 4.8 11.3 0.00 0.00 0.00 59 1018.1
20260830192537 31 223 3.2 19.3 0.00 0.00 0.00 60 1018.1
20260830192037 31 0 3.2 19.3 0.00 0.00 0.00 61 1018.3
20260830191602 31 219 3.2 11.3 0.00 0.00 0.00 59 1018.5
20260830191037 31 161 3.2 14.5 0.00 0.00 0.00 61 1018.6
20260830190538 31 0 4.8 14.5 0.00 0.00 0.00 60 1018.8
20260830190106 31 54 3.2 12.9 0.00 0.00 0.00 60 1018.9
20260830185538 31 171 3.2 12.9 0.00 0.00 0.00 60 1019.2
20260830185039 31 246 3.2 11.3 0.00 0.00 0.00 60 1019.3
20260830184554 31 253 4.8 11.3 0.00 0.00 0.00 61 1019.3
20260830184038 31 246 3.2 11.3 0.00 0.00 0.00 61 1019.4
20260830183538 31 0 1.6 12.9 0.00 0.00 0.00 63 1019.4
20260830183104 31 0 3.2 12.9 0.00 0.00 0.00 64 1019.5
20260830182538 30 0 1.6 16.1 0.00 0.00 0.00 65 1019.6
20260830182038 30 148 3.2 16.1 0.00 0.00 0.00 64 1019.5
20260830181602 30 241 4.8 12.9 0.00 0.00 0.00 64 1019.7
20260830181038 30 248 3.2 17.7 0.00 0.00 0.00 64 1019.7
20260830180537 30 264 3.2 17.7 0.00 0.00 0.00 63 1019.8
20260830175534 30 161 1.6 11.3 0.00 0.00 0.00 66 1020.0
20260830175038 30 159 1.6 12.9 0.00 0.00 0.00 67 1020.1
20260830174601 30 234 3.2 14.5 0.00 0.00 0.00 68 1020.2
20260830174038 30 188 3.2 20.9 0.00 0.00 0.00 66 1020.3
20260830173537 30 252 6.4 20.9 0.00 0.00 0.00 65 1020.3
20260830173100 30 281 1.6 12.9 0.00 0.00 0.00 67 1020.3
20260830172541 29 234 4.8 12.9 0.00 0.00 0.00 66 1020.4
20260830172037 29 219 1.6 12.9 0.00 0.00 0.00 68 1020.4
20260830171612 29 192 3.2 16.1 0.00 0.00 0.00 68 1020.5
20260830171041 29 0 0.0 16.1 0.00 0.00 0.00 68 1020.6
20260830170539 28 241 4.8 11.3 0.00 0.00 0.00 68 1020.6
20260830170106 28 145 3.2 8.0 0.00 0.00 0.00 70 1020.7
20260830165537 28 221 1.6 11.3 0.00 0.00 0.00 69 1020.8
20260830165039 28 182 3.2 11.3 0.00 0.00 0.00 69 1020.8
20260830164604 28 103 1.6 8.0 0.00 0.00 0.00 70 1020.8
20260830164037 28 153 1.6 12.9 0.00 0.00 0.00 71 1020.9
20260830163538 28 194 3.2 12.9 0.00 0.00 0.00 70 1021.0
20260830163102 28 282 4.8 12.9 0.00 0.00 0.00 70 1021.0
20260830162538 28 136 1.6 14.5 0.00 0.00 0.00 68 1021.1
20260830162038 28 148 3.2 14.5 0.00 0.00 0.00 71 1021.1
20260830161613 28 239 4.8 16.1 0.00 0.00 0.00 71 1021.2
20260830161037 28 260 3.2 16.1 0.00 0.00 0.00 71 1021.3
20260830160538 27 221 4.8 12.9 0.00 0.00 0.00 71 1021.3
20260830155537 27 196 6.4 19.3 0.00 0.00 0.00 73 1021.3
20260830155038 27 222 3.2 12.9 0.00 0.00 0.00 73 1021.4
20260830154600 27 184 4.8 12.9 0.00 0.00 0.00 73 1021.3
20260830154035 27 216 3.2 12.9 0.00 0.00 0.00 74 1021.3
20260830153536 27 191 3.2 12.9 0.00 0.00 0.00 73 1021.3
20260830153103 27 272 1.6 11.3 0.00 0.00 0.00 76 1021.4
20260830152537 27 254 3.2 11.3 0.00 0.00 0.00 75 1021.5